owner,sensor,date,latitude,longitude,vertical_datum,wind_speed,wind_to_direction,wind_speed_of_gust,qcFlag 
WAVCIS,ioos:station:WAVCIS:CSI03:3,2008-01-01T00:00:00Z,29.4412,-92.0613,10.0,1.739,140.0,,'11111222,11111222,99999999' 
WAVCIS,ioos:station:WAVCIS:CSI03:3,2008-01-01T01:00:00Z,29.4412,-92.0613,10.0,1.811,143.0,,'11111222,11111222,99999999' 
WAVCIS,ioos:station:WAVCIS:CSI03:3,2008-01-01T02:00:00Z,29.4412,-92.0613,10.0,0.89,78.0,,'11111222,11111222,99999999' 
WAVCIS,ioos:station:WAVCIS:CSI03:3,2008-01-01T03:00:00Z,29.4412,-92.0613,10.0,1.82,136.0,,'11111222,11111222,99999999' 
WAVCIS,ioos:station:WAVCIS:CSI03:3,2008-01-01T04:00:00Z,29.4412,-92.0613,10.0,1.054,145.0,,'11111222,11111222,99999999' 
WAVCIS,ioos:station:WAVCIS:CSI03:3,2008-01-01T05:00:00Z,29.4412,-92.0613,10.0,1.489,290.0,,'11111222,11111222,99999999' 
WAVCIS,ioos:station:WAVCIS:CSI03:3,2008-01-01T06:00:00Z,29.4412,-92.0613,10.0,7.18,1.0,,'11111222,11111222,99999999' 
WAVCIS,ioos:station:WAVCIS:CSI03:3,2008-01-01T07:00:00Z,29.4412,-92.0613,10.0,8.11,5.0,,'11111222,11111222,99999999' 
WAVCIS,ioos:station:WAVCIS:CSI03:3,2008-01-01T08:00:00Z,29.4412,-92.0613,10.0,9.53,5.0,,'11111222,11111222,99999999' 
WAVCIS,ioos:station:WAVCIS:CSI03:3,2008-01-01T09:00:00Z,29.4412,-92.0613,10.0,10.19,6.0,,'11111222,11111222,99999999' 
WAVCIS,ioos:station:WAVCIS:CSI03:3,2008-01-01T10:00:00Z,29.4412,-92.0613,10.0,11.81,15.0,,'11111222,11111222,99999999' 
WAVCIS,ioos:station:WAVCIS:CSI03:3,2008-01-01T11:00:00Z,29.4412,-92.0613,10.0,12.81,19.0,,'11111222,11111222,99999999' 
WAVCIS,ioos:station:WAVCIS:CSI03:3,2008-01-01T12:00:00Z,29.4412,-92.0613,10.0,11.31,19.0,,'11111222,11111222,99999999' 
WAVCIS,ioos:station:WAVCIS:CSI03:3,2008-01-01T13:00:00Z,29.4412,-92.0613,10.0,11.12,14.0,,'11111222,11111222,99999999' 
WAVCIS,ioos:station:WAVCIS:CSI03:3,2008-01-01T14:00:00Z,29.4412,-92.0613,10.0,11.07,13.0,,'11111222,11111222,99999999' 
WAVCIS,ioos:station:WAVCIS:CSI03:3,2008-01-01T15:00:00Z,29.4412,-92.0613,10.0,9.69,13.0,,'11111222,11111222,99999999' 
WAVCIS,ioos:station:WAVCIS:CSI03:3,2008-01-01T16:00:00Z,29.4412,-92.0613,10.0,9.22,10.0,,'11111222,11111222,99999999' 
WAVCIS,ioos:station:WAVCIS:CSI03:3,2008-01-01T17:00:00Z,29.4412,-92.0613,10.0,8.11,7.0,,'11111222,11111222,99999999' 
WAVCIS,ioos:station:WAVCIS:CSI03:3,2008-01-01T18:00:00Z,29.4412,-92.0613,10.0,8.34,11.0,,'11111222,11111222,99999999' 
WAVCIS,ioos:station:WAVCIS:CSI03:3,2008-01-01T19:00:00Z,29.4412,-92.0613,10.0,7.94,7.0,,'11111222,11111222,99999999' 
WAVCIS,ioos:station:WAVCIS:CSI03:3,2008-01-01T20:00:00Z,29.4412,-92.0613,10.0,7.87,9.0,,'11111222,11111222,99999999' 
WAVCIS,ioos:station:WAVCIS:CSI03:3,2008-01-01T21:00:00Z,29.4412,-92.0613,10.0,9.85,10.0,,'11111222,11111222,99999999' 
WAVCIS,ioos:station:WAVCIS:CSI03:3,2008-01-01T22:00:00Z,29.4412,-92.0613,10.0,7.24,9.0,,'11111222,11111222,99999999' 
WAVCIS,ioos:station:WAVCIS:CSI03:3,2008-01-01T23:00:00Z,29.4412,-92.0613,10.0,7.65,2.0,,'11111222,11111222,99999999' 
WAVCIS,ioos:station:WAVCIS:CSI03:3,2008-01-02T00:00:00Z,29.4412,-92.0613,10.0,7.2,0.0,,'11111222,11111222,99999999' 
WAVCIS,ioos:station:WAVCIS:CSI03:3,2008-01-02T01:00:00Z,29.4412,-92.0613,10.0,7.55,356.0,,'11111222,11111222,99999999' 
WAVCIS,ioos:station:WAVCIS:CSI03:3,2008-01-02T02:00:00Z,29.4412,-92.0613,10.0,7.22,356.0,,'11111222,11111222,99999999' 
WAVCIS,ioos:station:WAVCIS:CSI03:3,2008-01-02T03:00:00Z,29.4412,-92.0613,10.0,7.99,359.0,,'11111222,11111222,99999999' 
WAVCIS,ioos:station:WAVCIS:CSI03:3,2008-01-02T04:00:00Z,29.4412,-92.0613,10.0,8.45,347.0,,'11111222,11111222,99999999' 
WAVCIS,ioos:station:WAVCIS:CSI03:3,2008-01-02T05:00:00Z,29.4412,-92.0613,10.0,10.71,342.0,,'11111222,11111222,99999999' 
WAVCIS,ioos:station:WAVCIS:CSI03:3,2008-01-02T06:00:00Z,29.4412,-92.0613,10.0,9.95,355.0,,'11111222,11111222,99999999' 
WAVCIS,ioos:station:WAVCIS:CSI03:3,2008-01-02T07:00:00Z,29.4412,-92.0613,10.0,9.63,357.0,,'11111222,11111222,99999999' 
WAVCIS,ioos:station:WAVCIS:CSI03:3,2008-01-02T08:00:00Z,29.4412,-92.0613,10.0,9.99,356.0,,'11111222,11111222,99999999' 
WAVCIS,ioos:station:WAVCIS:CSI03:3,2008-01-02T09:00:00Z,29.4412,-92.0613,10.0,9.87,0.0,,'11111222,11111222,99999999' 
WAVCIS,ioos:station:WAVCIS:CSI03:3,2008-01-02T10:00:00Z,29.4412,-92.0613,10.0,10.37,358.0,,'11111222,11111222,99999999' 
WAVCIS,ioos:station:WAVCIS:CSI03:3,2008-01-02T11:00:00Z,29.4412,-92.0613,10.0,9.37,0.0,,'11111222,11111222,99999999' 
WAVCIS,ioos:station:WAVCIS:CSI03:3,2008-01-02T12:00:00Z,29.4412,-92.0613,10.0,9.86,359.0,,'11111222,11111222,99999999' 
WAVCIS,ioos:station:WAVCIS:CSI03:3,2008-01-02T13:00:00Z,29.4412,-92.0613,10.0,8.72,2.0,,'11111222,11111222,99999999' 
WAVCIS,ioos:station:WAVCIS:CSI03:3,2008-01-02T14:00:00Z,29.4412,-92.0613,10.0,9.47,3.0,,'11111222,11111222,99999999' 
WAVCIS,ioos:station:WAVCIS:CSI03:3,2008-01-02T15:00:00Z,29.4412,-92.0613,10.0,9.23,10.0,,'11111222,11111222,99999999' 
WAVCIS,ioos:station:WAVCIS:CSI03:3,2008-01-02T16:00:00Z,29.4412,-92.0613,10.0,7.98,14.0,,'11111222,11111222,99999999' 
WAVCIS,ioos:station:WAVCIS:CSI03:3,2008-01-02T17:00:00Z,29.4412,-92.0613,10.0,6.9,9.0,,'11111222,11111222,99999999' 
WAVCIS,ioos:station:WAVCIS:CSI03:3,2008-01-02T18:00:00Z,29.4412,-92.0613,10.0,6.417,0.0,,'11111222,11111222,99999999' 
WAVCIS,ioos:station:WAVCIS:CSI03:3,2008-01-02T19:00:00Z,29.4412,-92.0613,10.0,6.675,1.0,,'11111222,11111222,99999999' 
WAVCIS,ioos:station:WAVCIS:CSI03:3,2008-01-02T20:00:00Z,29.4412,-92.0613,10.0,7.3,3.0,,'11111222,11111222,99999999' 
WAVCIS,ioos:station:WAVCIS:CSI03:3,2008-01-02T21:00:00Z,29.4412,-92.0613,10.0,7.57,5.0,,'11111222,11111222,99999999' 
WAVCIS,ioos:station:WAVCIS:CSI03:3,2008-01-02T22:00:00Z,29.4412,-92.0613,10.0,8.01,9.0,,'11111222,11111222,99999999' 
WAVCIS,ioos:station:WAVCIS:CSI03:3,2008-01-02T23:00:00Z,29.4412,-92.0613,10.0,7.95,9.0,,'11111222,11111222,99999999' 
WAVCIS,ioos:station:WAVCIS:CSI03:3,2008-01-03T00:00:00Z,29.4412,-92.0613,10.0,7.5,12.0,,'11111222,11111222,99999999' 
WAVCIS,ioos:station:WAVCIS:CSI03:3,2008-01-03T01:00:00Z,29.4412,-92.0613,10.0,6.447,31.0,,'11111222,11111222,99999999' 
WAVCIS,ioos:station:WAVCIS:CSI03:3,2008-01-03T02:00:00Z,29.4412,-92.0613,10.0,5.808,36.0,,'11111222,11111222,99999999' 
WAVCIS,ioos:station:WAVCIS:CSI03:3,2008-01-03T03:00:00Z,29.4412,-92.0613,10.0,6.718,40.0,,'11111222,11111222,99999999' 
WAVCIS,ioos:station:WAVCIS:CSI03:3,2008-01-03T04:00:00Z,29.4412,-92.0613,10.0,7.67,49.0,,'11111222,11111222,99999999' 
WAVCIS,ioos:station:WAVCIS:CSI03:3,2008-01-03T05:00:00Z,29.4412,-92.0613,10.0,8.7,53.0,,'11111222,11111222,99999999' 
WAVCIS,ioos:station:WAVCIS:CSI03:3,2008-01-03T06:00:00Z,29.4412,-92.0613,10.0,7.68,52.0,,'11111222,11111222,99999999' 
WAVCIS,ioos:station:WAVCIS:CSI03:3,2008-01-03T07:00:00Z,29.4412,-92.0613,10.0,8.12,52.0,,'11111222,11111222,99999999' 
WAVCIS,ioos:station:WAVCIS:CSI03:3,2008-01-03T08:00:00Z,29.4412,-92.0613,10.0,8.76,54.0,,'11111222,11111222,99999999' 
WAVCIS,ioos:station:WAVCIS:CSI03:3,2008-01-03T09:00:00Z,29.4412,-92.0613,10.0,10.07,55.0,,'11111222,11111222,99999999' 
WAVCIS,ioos:station:WAVCIS:CSI03:3,2008-01-03T10:00:00Z,29.4412,-92.0613,10.0,10.06,56.0,,'11111222,11111222,99999999' 
WAVCIS,ioos:station:WAVCIS:CSI03:3,2008-01-03T11:00:00Z,29.4412,-92.0613,10.0,9.94,57.0,,'11111222,11111222,99999999' 
WAVCIS,ioos:station:WAVCIS:CSI03:3,2008-01-03T12:00:00Z,29.4412,-92.0613,10.0,10.07,62.0,,'11111222,11111222,99999999' 
WAVCIS,ioos:station:WAVCIS:CSI03:3,2008-01-03T13:00:00Z,29.4412,-92.0613,10.0,9.4,65.0,,'11111222,11111222,99999999' 
WAVCIS,ioos:station:WAVCIS:CSI03:3,2008-01-03T14:00:00Z,29.4412,-92.0613,10.0,8.77,61.0,,'11111222,11111222,99999999' 
WAVCIS,ioos:station:WAVCIS:CSI03:3,2008-01-03T15:00:00Z,29.4412,-92.0613,10.0,7.12,67.0,,'11111222,11111222,99999999' 
WAVCIS,ioos:station:WAVCIS:CSI03:3,2008-01-03T16:00:00Z,29.4412,-92.0613,10.0,6.141,74.0,,'11111222,11111222,99999999' 
WAVCIS,ioos:station:WAVCIS:CSI03:3,2008-01-03T17:00:00Z,29.4412,-92.0613,10.0,4.799,72.0,,'11111222,11111222,99999999' 
WAVCIS,ioos:station:WAVCIS:CSI03:3,2008-01-03T18:00:00Z,29.4412,-92.0613,10.0,4.768,87.0,,'11111222,11111222,99999999' 
WAVCIS,ioos:station:WAVCIS:CSI03:3,2008-01-03T19:00:00Z,29.4412,-92.0613,10.0,3.312,102.0,,'11111222,11111222,99999999' 
WAVCIS,ioos:station:WAVCIS:CSI03:3,2008-01-03T20:00:00Z,29.4412,-92.0613,10.0,3.699,91.0,,'11111222,11111222,99999999' 
WAVCIS,ioos:station:WAVCIS:CSI03:3,2008-01-03T21:00:00Z,29.4412,-92.0613,10.0,4.192,106.0,,'11111222,11111222,99999999' 
WAVCIS,ioos:station:WAVCIS:CSI03:3,2008-01-03T22:00:00Z,29.4412,-92.0613,10.0,3.656,120.0,,'11111222,11111222,99999999' 
WAVCIS,ioos:station:WAVCIS:CSI03:3,2008-01-03T23:00:00Z,29.4412,-92.0613,10.0,3.77,104.0,,'11111222,11111222,99999999' 
WAVCIS,ioos:station:WAVCIS:CSI03:3,2008-01-04T00:00:00Z,29.4412,-92.0613,10.0,4.768,118.0,,'11111222,11111222,99999999' 
WAVCIS,ioos:station:WAVCIS:CSI03:3,2008-01-04T01:00:00Z,29.4412,-92.0613,10.0,5.815,112.0,,'11111222,11111222,99999999' 
WAVCIS,ioos:station:WAVCIS:CSI03:3,2008-01-04T02:00:00Z,29.4412,-92.0613,10.0,5.621,107.0,,'11111222,11111222,99999999' 
WAVCIS,ioos:station:WAVCIS:CSI03:3,2008-01-04T03:00:00Z,29.4412,-92.0613,10.0,5.336,117.0,,'11111222,11111222,99999999' 
WAVCIS,ioos:station:WAVCIS:CSI03:3,2008-01-04T04:00:00Z,29.4412,-92.0613,10.0,5.79,112.0,,'11111222,11111222,99999999' 
WAVCIS,ioos:station:WAVCIS:CSI03:3,2008-01-04T05:00:00Z,29.4412,-92.0613,10.0,6.264,105.0,,'11111222,11111222,99999999' 
WAVCIS,ioos:station:WAVCIS:CSI03:3,2008-01-04T06:00:00Z,29.4412,-92.0613,10.0,5.842,94.0,,'11111222,11111222,99999999' 
WAVCIS,ioos:station:WAVCIS:CSI03:3,2008-01-04T07:00:00Z,29.4412,-92.0613,10.0,6.664,72.0,,'11111222,11111222,99999999' 
WAVCIS,ioos:station:WAVCIS:CSI03:3,2008-01-04T08:00:00Z,29.4412,-92.0613,10.0,6.537,74.0,,'11111222,11111222,99999999' 
WAVCIS,ioos:station:WAVCIS:CSI03:3,2008-01-04T09:00:00Z,29.4412,-92.0613,10.0,7.65,68.0,,'11111222,11111222,99999999' 
WAVCIS,ioos:station:WAVCIS:CSI03:3,2008-01-04T10:00:00Z,29.4412,-92.0613,10.0,8.86,84.0,,'11111222,11111222,99999999' 
WAVCIS,ioos:station:WAVCIS:CSI03:3,2008-01-04T11:00:00Z,29.4412,-92.0613,10.0,9.14,98.0,,'11111222,11111222,99999999' 
WAVCIS,ioos:station:WAVCIS:CSI03:3,2008-01-04T12:00:00Z,29.4412,-92.0613,10.0,9.47,97.0,,'11111222,11111222,99999999' 
WAVCIS,ioos:station:WAVCIS:CSI03:3,2008-01-04T13:00:00Z,29.4412,-92.0613,10.0,11.68,97.0,,'11111222,11111222,99999999' 
WAVCIS,ioos:station:WAVCIS:CSI03:3,2008-01-04T14:00:00Z,29.4412,-92.0613,10.0,10.4,97.0,,'11111222,11111222,99999999' 
WAVCIS,ioos:station:WAVCIS:CSI03:3,2008-01-04T15:00:00Z,29.4412,-92.0613,10.0,10.38,102.0,,'11111222,11111222,99999999' 
WAVCIS,ioos:station:WAVCIS:CSI03:3,2008-01-04T16:00:00Z,29.4412,-92.0613,10.0,10.04,103.0,,'11111222,11111222,99999999' 
WAVCIS,ioos:station:WAVCIS:CSI03:3,2008-01-04T17:00:00Z,29.4412,-92.0613,10.0,9.14,97.0,,'11111222,11111222,99999999' 
WAVCIS,ioos:station:WAVCIS:CSI03:3,2008-01-04T18:00:00Z,29.4412,-92.0613,10.0,8.57,110.0,,'11111222,11111222,99999999' 
WAVCIS,ioos:station:WAVCIS:CSI03:3,2008-01-04T19:00:00Z,29.4412,-92.0613,10.0,8.19,112.0,,'11111222,11111222,99999999' 
WAVCIS,ioos:station:WAVCIS:CSI03:3,2008-01-04T20:00:00Z,29.4412,-92.0613,10.0,8.57,112.0,,'11111222,11111222,99999999' 
WAVCIS,ioos:station:WAVCIS:CSI03:3,2008-01-04T21:00:00Z,29.4412,-92.0613,10.0,10.26,122.0,,'11111222,11111222,99999999' 
WAVCIS,ioos:station:WAVCIS:CSI03:3,2008-01-04T22:00:00Z,29.4412,-92.0613,10.0,9.89,123.0,,'11111222,11111222,99999999' 
WAVCIS,ioos:station:WAVCIS:CSI03:3,2008-01-04T23:00:00Z,29.4412,-92.0613,10.0,9.6,122.0,,'11111222,11111222,99999999' 
WAVCIS,ioos:station:WAVCIS:CSI03:3,2008-01-05T00:00:00Z,29.4412,-92.0613,10.0,9.29,120.0,,'11111222,11111222,99999999' 
WAVCIS,ioos:station:WAVCIS:CSI03:3,2008-01-05T01:00:00Z,29.4412,-92.0613,10.0,9.61,119.0,,'11111222,11111222,99999999' 
WAVCIS,ioos:station:WAVCIS:CSI03:3,2008-01-05T02:00:00Z,29.4412,-92.0613,10.0,8.52,122.0,,'11111222,11111222,99999999' 
WAVCIS,ioos:station:WAVCIS:CSI03:3,2008-01-05T03:00:00Z,29.4412,-92.0613,10.0,7.11,114.0,,'11111222,11111222,99999999' 
WAVCIS,ioos:station:WAVCIS:CSI03:3,2008-01-05T04:00:00Z,29.4412,-92.0613,10.0,8.69,121.0,,'11111222,11111222,99999999' 
WAVCIS,ioos:station:WAVCIS:CSI03:3,2008-01-05T05:00:00Z,29.4412,-92.0613,10.0,8.18,115.0,,'11111222,11111222,99999999' 
WAVCIS,ioos:station:WAVCIS:CSI03:3,2008-01-05T06:00:00Z,29.4412,-92.0613,10.0,8.64,116.0,,'11111222,11111222,99999999' 
WAVCIS,ioos:station:WAVCIS:CSI03:3,2008-01-05T07:00:00Z,29.4412,-92.0613,10.0,9.17,118.0,,'11111222,11111222,99999999' 
WAVCIS,ioos:station:WAVCIS:CSI03:3,2008-01-05T08:00:00Z,29.4412,-92.0613,10.0,8.44,128.0,,'11111222,11111222,99999999' 
WAVCIS,ioos:station:WAVCIS:CSI03:3,2008-01-05T09:00:00Z,29.4412,-92.0613,10.0,7.49,124.0,,'11111222,11111222,99999999' 
WAVCIS,ioos:station:WAVCIS:CSI03:3,2008-01-05T10:00:00Z,29.4412,-92.0613,10.0,6.064,111.0,,'11111222,11111222,99999999' 
WAVCIS,ioos:station:WAVCIS:CSI03:3,2008-01-05T11:00:00Z,29.4412,-92.0613,10.0,6.597,126.0,,'11111222,11111222,99999999' 
WAVCIS,ioos:station:WAVCIS:CSI03:3,2008-01-05T12:00:00Z,29.4412,-92.0613,10.0,5.757,128.0,,'11111222,11111222,99999999' 
WAVCIS,ioos:station:WAVCIS:CSI03:3,2008-01-05T13:00:00Z,29.4412,-92.0613,10.0,7.4,142.0,,'11111222,11111222,99999999' 
WAVCIS,ioos:station:WAVCIS:CSI03:3,2008-01-05T14:00:00Z,29.4412,-92.0613,10.0,8.17,143.0,,'11111222,11111222,99999999' 
WAVCIS,ioos:station:WAVCIS:CSI03:3,2008-01-05T15:00:00Z,29.4412,-92.0613,10.0,7.83,141.0,,'11111222,11111222,99999999' 
WAVCIS,ioos:station:WAVCIS:CSI03:3,2008-01-05T16:00:00Z,29.4412,-92.0613,10.0,7.33,138.0,,'11111222,11111222,99999999' 
WAVCIS,ioos:station:WAVCIS:CSI03:3,2008-01-05T17:00:00Z,29.4412,-92.0613,10.0,8.73,141.0,,'11111222,11111222,99999999' 
WAVCIS,ioos:station:WAVCIS:CSI03:3,2008-01-05T18:00:00Z,29.4412,-92.0613,10.0,7.02,128.0,,'11111222,11111222,99999999' 
WAVCIS,ioos:station:WAVCIS:CSI03:3,2008-01-05T19:00:00Z,29.4412,-92.0613,10.0,6.796,129.0,,'11111222,11111222,99999999' 
WAVCIS,ioos:station:WAVCIS:CSI03:3,2008-01-05T20:00:00Z,29.4412,-92.0613,10.0,7.6,131.0,,'11111222,11111222,99999999' 
WAVCIS,ioos:station:WAVCIS:CSI03:3,2008-01-05T21:00:00Z,29.4412,-92.0613,10.0,7.22,134.0,,'11111222,11111222,99999999' 
WAVCIS,ioos:station:WAVCIS:CSI03:3,2008-01-05T22:00:00Z,29.4412,-92.0613,10.0,7.72,139.0,,'11111222,11111222,99999999' 
WAVCIS,ioos:station:WAVCIS:CSI03:3,2008-01-05T23:00:00Z,29.4412,-92.0613,10.0,8.23,139.0,,'11111222,11111222,99999999' 
WAVCIS,ioos:station:WAVCIS:CSI03:3,2008-01-06T00:00:00Z,29.4412,-92.0613,10.0,7.34,136.0,,'11111222,11111222,99999999' 
WAVCIS,ioos:station:WAVCIS:CSI03:3,2008-01-06T01:00:00Z,29.4412,-92.0613,10.0,7.22,136.0,,'11111222,11111222,99999999' 
WAVCIS,ioos:station:WAVCIS:CSI03:3,2008-01-06T02:00:00Z,29.4412,-92.0613,10.0,7.0,134.0,,'11111222,11111222,99999999' 
WAVCIS,ioos:station:WAVCIS:CSI03:3,2008-01-06T03:00:00Z,29.4412,-92.0613,10.0,6.523,142.0,,'11111222,11111222,99999999' 
WAVCIS,ioos:station:WAVCIS:CSI03:3,2008-01-06T04:00:00Z,29.4412,-92.0613,10.0,6.931,150.0,,'11111222,11111222,99999999' 
WAVCIS,ioos:station:WAVCIS:CSI03:3,2008-01-06T05:00:00Z,29.4412,-92.0613,10.0,6.945,144.0,,'11111222,11111222,99999999' 
WAVCIS,ioos:station:WAVCIS:CSI03:3,2008-01-06T06:00:00Z,29.4412,-92.0613,10.0,6.859,153.0,,'11111222,11111222,99999999' 
WAVCIS,ioos:station:WAVCIS:CSI03:3,2008-01-06T07:00:00Z,29.4412,-92.0613,10.0,5.634,146.0,,'11111222,11111222,99999999' 
WAVCIS,ioos:station:WAVCIS:CSI03:3,2008-01-06T08:00:00Z,29.4412,-92.0613,10.0,6.614,149.0,,'11111222,11111222,99999999' 
WAVCIS,ioos:station:WAVCIS:CSI03:3,2008-01-06T09:00:00Z,29.4412,-92.0613,10.0,6.771,155.0,,'11111222,11111222,99999999' 
WAVCIS,ioos:station:WAVCIS:CSI03:3,2008-01-06T10:00:00Z,29.4412,-92.0613,10.0,6.222,157.0,,'11111222,11111222,99999999' 
WAVCIS,ioos:station:WAVCIS:CSI03:3,2008-01-06T11:00:00Z,29.4412,-92.0613,10.0,6.419,153.0,,'11111222,11111222,99999999' 
WAVCIS,ioos:station:WAVCIS:CSI03:3,2008-01-06T12:00:00Z,29.4412,-92.0613,10.0,6.7,154.0,,'11111222,11111222,99999999' 
WAVCIS,ioos:station:WAVCIS:CSI03:3,2008-01-06T13:00:00Z,29.4412,-92.0613,10.0,5.179,157.0,,'11111222,11111222,99999999' 
WAVCIS,ioos:station:WAVCIS:CSI03:3,2008-01-06T14:00:00Z,29.4412,-92.0613,10.0,4.076,181.0,,'11111222,11111222,99999999' 
WAVCIS,ioos:station:WAVCIS:CSI03:3,2008-01-06T15:00:00Z,29.4412,-92.0613,10.0,4.854,154.0,,'11111222,11111222,99999999' 
WAVCIS,ioos:station:WAVCIS:CSI03:3,2008-01-06T16:00:00Z,29.4412,-92.0613,10.0,5.276,169.0,,'11111222,11111222,99999999' 
WAVCIS,ioos:station:WAVCIS:CSI03:3,2008-01-06T17:00:00Z,29.4412,-92.0613,10.0,6.356,146.0,,'11111222,11111222,99999999' 
WAVCIS,ioos:station:WAVCIS:CSI03:3,2008-01-06T18:00:00Z,29.4412,-92.0613,10.0,6.923,155.0,,'11111222,11111222,99999999' 
WAVCIS,ioos:station:WAVCIS:CSI03:3,2008-01-06T19:00:00Z,29.4412,-92.0613,10.0,5.987,146.0,,'11111222,11111222,99999999' 
WAVCIS,ioos:station:WAVCIS:CSI03:3,2008-01-06T20:00:00Z,29.4412,-92.0613,10.0,7.03,153.0,,'11111222,11111222,99999999' 
WAVCIS,ioos:station:WAVCIS:CSI03:3,2008-01-06T21:00:00Z,29.4412,-92.0613,10.0,5.748,148.0,,'11111222,11111222,99999999' 
WAVCIS,ioos:station:WAVCIS:CSI03:3,2008-01-06T22:00:00Z,29.4412,-92.0613,10.0,6.498,152.0,,'11111222,11111222,99999999' 
WAVCIS,ioos:station:WAVCIS:CSI03:3,2008-01-06T23:00:00Z,29.4412,-92.0613,10.0,5.662,149.0,,'11111222,11111222,99999999' 
WAVCIS,ioos:station:WAVCIS:CSI03:3,2008-01-07T00:00:00Z,29.4412,-92.0613,10.0,5.304,148.0,,'11111222,11111222,99999999' 
WAVCIS,ioos:station:WAVCIS:CSI03:3,2008-01-07T01:00:00Z,29.4412,-92.0613,10.0,7.62,149.0,,'11111222,11111222,99999999' 
WAVCIS,ioos:station:WAVCIS:CSI03:3,2008-01-07T02:00:00Z,29.4412,-92.0613,10.0,7.43,150.0,,'11111222,11111222,99999999' 
WAVCIS,ioos:station:WAVCIS:CSI03:3,2008-01-07T03:00:00Z,29.4412,-92.0613,10.0,7.78,157.0,,'11111222,11111222,99999999' 
WAVCIS,ioos:station:WAVCIS:CSI03:3,2008-01-07T04:00:00Z,29.4412,-92.0613,10.0,9.28,150.0,,'11111222,11111222,99999999' 
WAVCIS,ioos:station:WAVCIS:CSI03:3,2008-01-07T05:00:00Z,29.4412,-92.0613,10.0,6.472,150.0,,'11111222,11111222,99999999' 
WAVCIS,ioos:station:WAVCIS:CSI03:3,2008-01-07T06:00:00Z,29.4412,-92.0613,10.0,6.47,152.0,,'11111222,11111222,99999999' 
WAVCIS,ioos:station:WAVCIS:CSI03:3,2008-01-07T07:00:00Z,29.4412,-92.0613,10.0,6.742,144.0,,'11111222,11111222,99999999' 
WAVCIS,ioos:station:WAVCIS:CSI03:3,2008-01-07T08:00:00Z,29.4412,-92.0613,10.0,6.682,142.0,,'11111222,11111222,99999999' 
WAVCIS,ioos:station:WAVCIS:CSI03:3,2008-01-07T09:00:00Z,29.4412,-92.0613,10.0,6.738,136.0,,'11111222,11111222,99999999' 
WAVCIS,ioos:station:WAVCIS:CSI03:3,2008-01-07T10:00:00Z,29.4412,-92.0613,10.0,6.559,136.0,,'11111222,11111222,99999999' 
WAVCIS,ioos:station:WAVCIS:CSI03:3,2008-01-07T11:00:00Z,29.4412,-92.0613,10.0,7.38,137.0,,'11111222,11111222,99999999' 
WAVCIS,ioos:station:WAVCIS:CSI03:3,2008-01-07T12:00:00Z,29.4412,-92.0613,10.0,5.643,138.0,,'11111222,11111222,99999999' 
WAVCIS,ioos:station:WAVCIS:CSI03:3,2008-01-07T13:00:00Z,29.4412,-92.0613,10.0,6.391,154.0,,'11111222,11111222,99999999' 
WAVCIS,ioos:station:WAVCIS:CSI03:3,2008-01-07T14:00:00Z,29.4412,-92.0613,10.0,7.86,146.0,,'11111222,11111222,99999999' 
WAVCIS,ioos:station:WAVCIS:CSI03:3,2008-01-07T15:00:00Z,29.4412,-92.0613,10.0,8.42,137.0,,'11111222,11111222,99999999' 
WAVCIS,ioos:station:WAVCIS:CSI03:3,2008-01-07T16:00:00Z,29.4412,-92.0613,10.0,6.942,143.0,,'11111222,11111222,99999999' 
WAVCIS,ioos:station:WAVCIS:CSI03:3,2008-01-07T17:00:00Z,29.4412,-92.0613,10.0,7.86,143.0,,'11111222,11111222,99999999' 
WAVCIS,ioos:station:WAVCIS:CSI03:3,2008-01-07T18:00:00Z,29.4412,-92.0613,10.0,6.946,142.0,,'11111222,11111222,99999999' 
WAVCIS,ioos:station:WAVCIS:CSI03:3,2008-01-07T19:00:00Z,29.4412,-92.0613,10.0,7.18,151.0,,'11111222,11111222,99999999' 
WAVCIS,ioos:station:WAVCIS:CSI03:3,2008-01-07T20:00:00Z,29.4412,-92.0613,10.0,6.877,148.0,,'11111222,11111222,99999999' 
WAVCIS,ioos:station:WAVCIS:CSI03:3,2008-01-07T21:00:00Z,29.4412,-92.0613,10.0,6.449,139.0,,'11111222,11111222,99999999' 
WAVCIS,ioos:station:WAVCIS:CSI03:3,2008-01-07T22:00:00Z,29.4412,-92.0613,10.0,8.08,138.0,,'11111222,11111222,99999999' 
WAVCIS,ioos:station:WAVCIS:CSI03:3,2008-01-07T23:00:00Z,29.4412,-92.0613,10.0,8.04,137.0,,'11111222,11111222,99999999' 
WAVCIS,ioos:station:WAVCIS:CSI03:3,2008-01-08T00:00:00Z,29.4412,-92.0613,10.0,8.01,136.0,,'11111222,11111222,99999999' 
WAVCIS,ioos:station:WAVCIS:CSI03:3,2008-01-08T01:00:00Z,29.4412,-92.0613,10.0,8.62,139.0,,'11111222,11111222,99999999' 
WAVCIS,ioos:station:WAVCIS:CSI03:3,2008-01-08T02:00:00Z,29.4412,-92.0613,10.0,7.72,138.0,,'11111222,11111222,99999999' 
WAVCIS,ioos:station:WAVCIS:CSI03:3,2008-01-08T03:00:00Z,29.4412,-92.0613,10.0,6.366,132.0,,'11111222,11111222,99999999' 
WAVCIS,ioos:station:WAVCIS:CSI03:3,2008-01-08T04:00:00Z,29.4412,-92.0613,10.0,7.92,138.0,,'11111222,11111222,99999999' 
WAVCIS,ioos:station:WAVCIS:CSI03:3,2008-01-08T05:00:00Z,29.4412,-92.0613,10.0,8.49,146.0,,'11111222,11111222,99999999' 
WAVCIS,ioos:station:WAVCIS:CSI03:3,2008-01-08T06:00:00Z,29.4412,-92.0613,10.0,7.35,144.0,,'11111222,11111222,99999999' 
WAVCIS,ioos:station:WAVCIS:CSI03:3,2008-01-08T07:00:00Z,29.4412,-92.0613,10.0,6.692,136.0,,'11111222,11111222,99999999' 
WAVCIS,ioos:station:WAVCIS:CSI03:3,2008-01-08T08:00:00Z,29.4412,-92.0613,10.0,6.776,133.0,,'11111222,11111222,99999999' 
WAVCIS,ioos:station:WAVCIS:CSI03:3,2008-01-08T09:00:00Z,29.4412,-92.0613,10.0,6.928,132.0,,'11111222,11111222,99999999' 
WAVCIS,ioos:station:WAVCIS:CSI03:3,2008-01-08T10:00:00Z,29.4412,-92.0613,10.0,7.28,135.0,,'11111222,11111222,99999999' 
WAVCIS,ioos:station:WAVCIS:CSI03:3,2008-01-08T11:00:00Z,29.4412,-92.0613,10.0,6.43,132.0,,'11111222,11111222,99999999' 
WAVCIS,ioos:station:WAVCIS:CSI03:3,2008-01-08T12:00:00Z,29.4412,-92.0613,10.0,7.73,144.0,,'11111222,11111222,99999999' 
WAVCIS,ioos:station:WAVCIS:CSI03:3,2008-01-08T13:00:00Z,29.4412,-92.0613,10.0,6.799,146.0,,'11111222,11111222,99999999' 
WAVCIS,ioos:station:WAVCIS:CSI03:3,2008-01-08T14:00:00Z,29.4412,-92.0613,10.0,5.798,146.0,,'11111222,11111222,99999999' 
WAVCIS,ioos:station:WAVCIS:CSI03:3,2008-01-08T15:00:00Z,29.4412,-92.0613,10.0,6.931,146.0,,'11111222,11111222,99999999' 
WAVCIS,ioos:station:WAVCIS:CSI03:3,2008-01-08T16:00:00Z,29.4412,-92.0613,10.0,6.659,147.0,,'11111222,11111222,99999999' 
WAVCIS,ioos:station:WAVCIS:CSI03:3,2008-01-08T17:00:00Z,29.4412,-92.0613,10.0,7.1,144.0,,'11111222,11111222,99999999' 
WAVCIS,ioos:station:WAVCIS:CSI03:3,2008-01-08T18:00:00Z,29.4412,-92.0613,10.0,6.207,141.0,,'11111222,11111222,99999999' 
WAVCIS,ioos:station:WAVCIS:CSI03:3,2008-01-08T19:00:00Z,29.4412,-92.0613,10.0,5.76,150.0,,'11111222,11111222,99999999' 
WAVCIS,ioos:station:WAVCIS:CSI03:3,2008-01-08T20:00:00Z,29.4412,-92.0613,10.0,6.366,145.0,,'11111222,11111222,99999999' 
WAVCIS,ioos:station:WAVCIS:CSI03:3,2008-01-08T21:00:00Z,29.4412,-92.0613,10.0,5.08,153.0,,'11111222,11111222,99999999' 
WAVCIS,ioos:station:WAVCIS:CSI03:3,2008-01-08T22:00:00Z,29.4412,-92.0613,10.0,6.027,163.0,,'11111222,11111222,99999999' 
WAVCIS,ioos:station:WAVCIS:CSI03:3,2008-01-08T23:00:00Z,29.4412,-92.0613,10.0,5.051,171.0,,'11111222,11111222,99999999' 
WAVCIS,ioos:station:WAVCIS:CSI03:3,2008-01-09T00:00:00Z,29.4412,-92.0613,10.0,5.498,173.0,,'11111222,11111222,99999999' 
WAVCIS,ioos:station:WAVCIS:CSI03:3,2008-01-09T01:00:00Z,29.4412,-92.0613,10.0,5.979,176.0,,'11111222,11111222,99999999' 
WAVCIS,ioos:station:WAVCIS:CSI03:3,2008-01-09T02:00:00Z,29.4412,-92.0613,10.0,6.774,183.0,,'11111222,11111222,99999999' 
WAVCIS,ioos:station:WAVCIS:CSI03:3,2008-01-09T03:00:00Z,29.4412,-92.0613,10.0,3.287,190.0,,'11111222,11111222,99999999' 
WAVCIS,ioos:station:WAVCIS:CSI03:3,2008-01-09T04:00:00Z,29.4412,-92.0613,10.0,3.898,190.0,,'11111222,11111222,99999999' 
WAVCIS,ioos:station:WAVCIS:CSI03:3,2008-01-09T05:00:00Z,29.4412,-92.0613,10.0,6.273,31.0,,'11111222,11111222,99999999' 
WAVCIS,ioos:station:WAVCIS:CSI03:3,2008-01-09T06:00:00Z,29.4412,-92.0613,10.0,4.153,48.0,,'11111222,11111222,99999999' 